Date String (YYYY-MM-DD hh:mm:ss) UTC,Instrument flags,absolute air pressure of the measurement (hPa),sample flow rate (lpm),inlet stack bypass flow (lpm),air temperature of the measurement (°C),ambient temperature measured by the external sensor (°C),aerosol sample conditioner tube jacket temperature (°C),OPC LED temperature (°C),internal box temperature (°C),relative humidity of the measurement (%),span deviation,mass concentration of particles derived from Lorenz-Mie calculation of OPC scattering (μg/m³),mass concentration of particles derived from Lorenz-Mie calculation of OPC scattering (μg/m³),mass concentration of particles derived from Lorenz-Mie calculation of OPC scattering (μg/m³)
DateTimeUTC,F1_M11,P_M11,Q1_M11,Q2_M11,T1_M11,T2_M11,T3_M11,T4_M11,T5_M11,U1_M11,ZSPAN_M11,X0_M11,X2_M11,X1_M11
2023-11-10 04:00:00,SystemResetWarning,0834.1,4.99,000.00,024.5,023.2,000.0,033.0,025.9,11.3,0000.0,0009.57,0004.79,0004.18
2023-11-10 04:01:00,SystemResetWarning,0834.1,5.00,000.00,024.5,023.2,000.0,033.0,025.8,11.3,0000.0,0010.11,0004.79,0004.18
2023-11-10 04:02:00,SystemResetWarning,0834.2,4.99,000.00,024.5,023.2,000.0,033.0,025.8,11.3,0000.0,0009.98,0004.78,0004.18
2023-11-10 04:03:00,SystemResetWarning,0834.2,5.00,000.00,024.5,023.2,000.0,033.0,025.7,11.3,0000.0,0009.42,0004.76,0004.19
2023-11-10 04:04:00,SystemResetWarning,0834.2,5.00,000.00,024.4,023.2,000.0,033.0,025.7,11.3,0000.0,0009.42,0004.74,0004.18
2023-11-10 04:05:00,SystemResetWarning,0834.2,5.01,000.00,024.4,023.1,000.0,033.0,025.6,11.3,0000.0,0009.10,0004.72,0004.17
2023-11-10 04:06:00,SystemResetWarning,0834.1,5.01,000.00,024.4,023.1,000.0,032.9,025.7,11.4,0000.0,0009.15,0004.72,0004.16
2023-11-10 04:07:00,SystemResetWarning,0834.1,5.00,000.00,024.4,023.1,000.0,032.9,025.7,11.4,0000.0,0009.15,0004.70,0004.15
2023-11-10 04:08:00,SystemResetWarning,0834.1,4.99,000.00,024.4,023.1,000.0,032.9,025.6,11.4,0000.0,0009.09,0004.69,0004.14
2023-11-10 04:09:00,SystemResetWarning,0834.1,4.98,000.00,024.4,023.1,000.0,032.9,025.6,11.5,0000.0,0009.00,0004.66,0004.13
2023-11-10 04:10:00,SystemResetWarning,0834.1,5.00,000.00,024.3,023.1,000.0,032.9,025.6,11.5,0000.0,0009.22,0004.67,0004.13
2023-11-10 04:11:00,SystemResetWarning,0834.1,5.00,000.00,024.3,023.1,000.0,032.9,025.6,11.5,0000.0,0009.67,0004.66,0004.13
2023-11-10 04:12:00,SystemResetWarning,0834.1,5.00,000.00,024.3,023.1,000.0,032.9,025.6,11.6,0000.0,0009.86,0004.62,0004.12
2023-11-10 04:13:00,SystemResetWarning,0834.1,5.01,000.00,024.3,023.0,000.0,032.8,025.6,11.6,0000.0,0009.89,0004.67,0004.13
2023-11-10 04:14:00,SystemResetWarning,0834.1,5.00,000.00,024.3,023.0,000.0,032.8,025.6,11.6,0000.0,0009.96,0004.73,0004.13
2023-11-10 04:15:00,SystemResetWarning,0834.1,4.99,000.00,024.3,023.0,000.0,032.8,025.5,11.6,0000.0,0009.83,0004.74,0004.13
2023-11-10 04:16:00,SystemResetWarning,0834.1,5.00,000.00,024.3,023.0,000.0,032.8,025.5,11.6,0000.0,0009.44,0004.72,0004.14
2023-11-10 04:17:00,SystemResetWarning,0834.1,4.99,000.00,024.2,022.9,000.0,032.8,025.6,11.6,0000.0,0009.50,0004.72,0004.14
2023-11-10 04:18:00,SystemResetWarning,0834.1,5.01,000.00,024.2,022.9,000.0,032.8,025.6,11.6,0000.0,0010.16,0004.77,0004.16
2023-11-10 04:19:00,SystemResetWarning,0834.1,5.00,000.00,024.2,022.9,000.0,032.8,025.5,11.6,0000.0,0010.53,0004.79,0004.17
2023-11-10 04:20:00,SystemResetWarning,0834.1,5.00,000.00,024.2,022.9,000.0,032.7,025.5,11.6,0000.0,0010.81,0004.81,0004.18
2023-11-10 04:21:00,SystemResetWarning,0834.1,4.99,000.00,024.2,022.9,000.0,032.7,025.5,11.6,0000.0,0011.39,0004.82,0004.19
2023-11-10 04:22:00,SystemResetWarning,0834.1,5.01,000.00,024.2,022.9,000.0,032.7,025.4,11.6,0000.0,0011.24,0004.83,0004.20
2023-11-10 04:23:00,SystemResetWarning,0834.1,5.00,000.00,024.2,022.9,000.0,032.7,025.5,11.6,0000.0,0010.37,0004.87,0004.21
2023-11-10 04:24:00,SystemResetWarning,0834.1,5.01,000.00,024.1,022.9,000.0,032.7,025.4,11.6,0000.0,0010.12,0004.81,0004.20
2023-11-10 04:25:00,SystemResetWarning,0834.1,5.00,000.00,024.1,022.9,000.0,032.7,025.4,11.5,0000.0,0010.10,0004.73,0004.18
2023-11-10 04:26:00,SystemResetWarning,0834.1,5.00,000.00,024.1,022.9,000.0,032.7,025.4,11.5,0000.0,0010.11,0004.69,0004.15
2023-11-10 04:27:00,SystemResetWarning,0834.1,4.99,000.00,024.1,022.9,000.0,032.6,025.4,11.4,0000.0,0010.07,0004.65,0004.13
2023-11-10 04:28:00,SystemResetWarning,0834.1,5.00,000.00,024.1,022.8,000.0,032.6,025.4,11.4,0000.0,0010.12,0004.65,0004.12
2023-11-10 04:29:00,SystemResetWarning,0834.1,5.00,000.00,024.1,022.8,000.0,032.6,025.4,11.4,0000.0,0009.97,0004.59,0004.10
2023-11-10 04:30:00,SystemResetWarning,0834.1,5.00,000.00,024.1,022.8,000.0,032.6,025.4,11.4,0000.0,0010.13,0004.57,0004.08
2023-11-10 04:31:00,SystemResetWarning,0834.1,5.00,000.00,024.1,022.7,000.0,032.6,025.4,11.5,0000.0,0010.02,0004.53,0004.06
2023-11-10 04:32:00,SystemResetWarning,0834.1,5.01,000.00,024.0,022.8,000.0,032.6,025.3,11.5,0000.0,0009.65,0004.51,0004.05
2023-11-10 04:33:00,SystemResetWarning,0834.1,5.00,000.00,024.0,022.8,000.0,032.6,025.3,11.4,0000.0,0009.82,0004.48,0004.03
2023-11-10 04:34:00,SystemResetWarning,0834.0,5.00,000.00,024.0,022.8,000.0,032.5,025.3,11.4,0000.0,0009.85,0004.47,0004.01
2023-11-10 04:35:00,SystemResetWarning,0834.1,5.00,000.00,024.0,022.8,000.0,032.5,025.3,11.5,0000.0,0009.96,0004.50,0004.00
2023-11-10 04:36:00,SystemResetWarning,0834.1,5.00,000.00,024.0,022.7,000.0,032.5,025.2,11.6,0000.0,0009.99,0004.55,0004.00
2023-11-10 04:37:00,SystemResetWarning,0834.1,4.99,000.00,024.0,022.7,000.0,032.5,025.2,11.6,0000.0,0010.02,0004.57,0004.00
2023-11-10 04:38:00,SystemResetWarning,0834.1,5.00,000.00,024.0,022.7,000.0,032.5,025.2,11.7,0000.0,0010.10,0004.60,0004.00
2023-11-10 04:39:00,SystemResetWarning,0834.1,4.99,000.00,023.9,022.7,000.0,032.5,025.2,11.7,0000.0,0010.06,0004.61,0004.00
2023-11-10 04:40:00,SystemResetWarning,0834.1,5.00,000.00,023.9,022.7,000.0,032.5,025.2,11.7,0000.0,0010.03,0004.63,0004.01
2023-11-10 04:41:00,SystemResetWarning,0834.1,5.01,000.00,023.9,022.6,000.0,032.4,025.2,11.7,0000.0,0009.20,0004.64,0004.01
2023-11-10 04:42:00,SystemResetWarning,0834.1,5.00,000.00,023.9,022.6,000.0,032.4,025.2,11.7,0000.0,0009.16,0004.66,0004.02
2023-11-10 04:43:00,SystemResetWarning,0834.1,5.00,000.00,023.9,022.6,000.0,032.4,025.2,11.7,0000.0,0009.19,0004.69,0004.02
2023-11-10 04:44:00,SystemResetWarning,0834.1,5.00,000.00,023.9,022.6,000.0,032.4,025.2,11.7,0000.0,0009.09,0004.68,0004.02
2023-11-10 04:45:00,SystemResetWarning,0834.1,5.00,000.00,023.9,022.6,000.0,032.4,025.1,11.7,0000.0,0008.95,0004.67,0004.04
2023-11-10 04:46:00,SystemResetWarning,0834.1,5.00,000.00,023.8,022.5,000.0,032.4,025.1,11.6,0000.0,0008.83,0004.65,0004.05
2023-11-10 04:47:00,SystemResetWarning,0834.0,5.00,000.00,023.8,022.5,000.0,032.4,025.1,11.6,0000.0,0008.78,0004.61,0004.06
2023-11-10 04:48:00,SystemResetWarning,0834.0,5.00,000.00,023.8,022.5,000.0,032.4,025.1,11.5,0000.0,0008.81,0004.61,0004.07
2023-11-10 04:49:00,SystemResetWarning,0834.1,4.99,000.00,023.8,022.5,000.0,032.3,025.1,11.1,0000.0,0008.76,0004.61,0004.10
2023-11-10 04:50:00,SystemResetWarning,0834.0,5.00,000.00,023.8,022.5,000.0,032.3,025.1,11.1,0000.0,0008.77,0004.63,0004.11
2023-11-10 04:51:00,SystemResetWarning,0834.0,5.00,000.00,023.8,022.5,000.0,032.3,025.1,11.0,0000.0,0008.76,0004.66,0004.11
2023-11-10 04:52:00,SystemResetWarning,0834.0,5.00,000.00,023.8,022.5,000.0,032.3,025.1,11.2,0000.0,0008.93,0004.67,0004.10
2023-11-10 04:53:00,SystemResetWarning,0834.0,5.00,000.00,023.8,022.5,000.0,032.3,025.1,11.3,0000.0,0009.07,0004.72,0004.10
2023-11-10 04:54:00,SystemResetWarning,0834.0,5.00,000.00,023.7,022.5,000.0,032.3,025.1,11.3,0000.0,0008.79,0004.70,0004.08
2023-11-10 04:55:00,SystemResetWarning,0833.9,5.00,000.00,023.7,022.4,000.0,032.2,025.0,11.0,0000.0,0008.30,0004.69,0004.06
2023-11-10 04:56:00,SystemResetWarning,0833.9,5.00,000.00,023.7,022.4,000.0,032.2,025.0,10.8,0000.0,0008.53,0004.67,0004.03
2023-11-10 04:57:00,SystemResetWarning,0833.9,5.00,000.00,023.7,022.4,000.0,032.2,025.0,10.7,0000.0,0009.26,0004.66,0004.00
2023-11-10 04:58:00,SystemResetWarning,0834.0,4.98,000.00,023.7,022.4,000.0,032.2,025.0,10.7,0000.0,0009.18,0004.63,0003.97
2023-11-10 04:59:00,SystemResetWarning,0833.9,5.00,000.00,023.7,022.4,000.0,032.2,025.0,10.7,0000.0,0009.48,0004.64,0003.93
